Date String (YYYY-MM-DD hh:mm:ss) UTC,Instrument flags,Ambient pressure (hPa),Sample flow (lpm),Bypass flow (lpm),Sample temperature (°C),Ambient temperature (°C),ASC tube jacket temperature (°C),LED temperature (°C),Box temperature (°C),Sample RH (%),Span deviation,Mass concentration (μg/m³),Mass concentration (μg/m³),Mass concentration (μg/m³)
DateTimeUTC,F1_M11,P_M11,Q1_M11,Q2_M11,T1_M11,T2_M11,T3_M11,T4_M11,T5_M11,U1_M11,ZSPAN_M11,X2_M11,X0_M11,X1_M11
2022-12-25 19:00:00,,0824.0,4.99,0.00,22.0,20.7,00.0,31.0,23.7,14.6,0000.0,0000.28,0000.41,0000.22
2022-12-25 19:01:00,,0824.0,4.97,0.00,22.0,20.6,00.0,31.0,23.7,14.2,0000.0,0000.28,0000.40,0000.23
2022-12-25 19:02:00,,0824.0,5.01,0.00,22.0,20.6,00.0,30.9,23.7,13.9,0000.0,0000.28,0000.42,0000.23
2022-12-25 19:03:00,,0824.0,5.04,0.00,22.0,20.6,00.0,30.9,23.7,13.8,0000.0,0000.29,0001.02,0000.23
2022-12-25 19:04:00,,0824.1,4.99,0.00,22.0,20.6,00.0,30.9,23.7,13.7,0000.0,0000.30,0001.82,0000.24
2022-12-25 19:05:00,,0824.1,4.98,0.00,22.0,20.6,00.0,30.9,23.7,14.3,0000.0,0000.29,0001.82,0000.23
2022-12-25 19:06:00,,0824.1,5.01,0.00,22.0,20.6,00.0,30.9,23.7,14.4,0000.0,0000.31,0001.93,0000.23
2022-12-25 19:07:00,,0824.2,5.02,0.00,22.0,20.5,00.0,30.9,23.7,14.5,0000.0,0000.31,0001.93,0000.23
2022-12-25 19:08:00,,0824.1,5.00,0.00,21.9,20.5,00.0,30.9,23.7,14.9,0000.0,0000.31,0001.92,0000.23
2022-12-25 19:09:00,,0824.1,4.98,0.00,22.0,20.6,00.0,30.9,23.7,14.9,0000.0,0000.30,0001.90,0000.23
2022-12-25 19:10:00,,0824.0,4.98,0.00,22.0,20.6,00.0,30.9,23.7,14.2,0000.0,0000.29,0001.88,0000.22
2022-12-25 19:11:00,,0823.7,5.00,0.00,22.0,20.6,00.0,30.8,23.7,13.8,0000.0,0000.27,0001.88,0000.21
2022-12-25 19:12:00,,0823.7,5.03,0.00,22.0,20.6,00.0,30.8,23.6,13.8,0000.0,0000.28,0002.12,0000.21
2022-12-25 19:13:00,,0823.7,4.98,0.00,21.9,20.5,00.0,30.8,23.6,13.9,0000.0,0000.28,0002.11,0000.20
2022-12-25 19:14:00,,0823.7,4.97,0.00,21.9,20.5,00.0,30.8,23.6,13.8,0000.0,0000.26,0001.64,0000.19
2022-12-25 19:15:00,,0823.6,5.00,0.00,21.9,20.5,00.0,30.8,23.6,14.0,0000.0,0000.24,0000.65,0000.19
2022-12-25 19:16:00,,0823.7,5.00,0.00,21.9,20.5,00.0,30.8,23.6,14.3,0000.0,0000.25,0000.68,0000.18
2022-12-25 19:17:00,,0823.8,5.01,0.00,21.9,20.4,00.0,30.8,23.6,13.8,0000.0,0000.25,0000.61,0000.19
2022-12-25 19:18:00,,0823.7,4.99,0.00,21.9,20.4,00.0,30.8,23.5,14.2,0000.0,0000.24,0000.57,0000.19
2022-12-25 19:19:00,,0823.7,4.97,0.00,21.8,20.4,00.0,30.8,23.5,14.4,0000.0,0000.23,0000.58,0000.18
2022-12-25 19:20:00,,0823.8,4.98,0.00,21.8,20.3,00.0,30.8,23.4,14.4,0000.0,0000.24,0000.61,0000.18
2022-12-25 19:21:00,,0823.7,5.02,0.00,21.8,20.3,00.0,30.8,23.4,14.3,0000.0,0000.25,0000.62,0000.19
2022-12-25 19:22:00,,0823.7,5.02,0.00,21.8,20.3,00.0,30.8,23.5,14.1,0000.0,0000.24,0000.64,0000.18
2022-12-25 19:23:00,,0823.7,4.99,0.00,21.8,20.3,00.0,30.7,23.5,13.9,0000.0,0000.23,0000.58,0000.19
2022-12-25 19:24:00,,0823.7,4.99,0.00,21.8,20.3,00.0,30.7,23.4,13.9,0000.0,0000.22,0000.57,0000.19
2022-12-25 19:25:00,,0823.7,4.98,0.00,21.8,20.3,00.0,30.7,23.4,14.3,0000.0,0000.24,0000.81,0000.18
2022-12-25 19:26:00,,0823.7,5.00,0.00,21.8,20.3,00.0,30.7,23.4,14.5,0000.0,0000.24,0000.96,0000.18
2022-12-25 19:27:00,,0823.8,5.03,0.00,21.8,20.3,00.0,30.7,23.4,14.7,0000.0,0000.24,0000.94,0000.18
2022-12-25 19:28:00,,0823.8,5.03,0.00,21.7,20.3,00.0,30.7,23.4,14.8,0000.0,0000.23,0000.91,0000.17
2022-12-25 19:29:00,,0823.8,4.98,0.00,21.7,20.3,00.0,30.7,23.5,14.9,0000.0,0000.23,0000.91,0000.17
2022-12-25 19:30:00,,0823.8,4.98,0.00,21.7,20.3,00.0,30.7,23.4,14.9,0000.0,0000.23,0000.99,0000.17
2022-12-25 19:31:00,,0823.7,5.02,0.00,21.7,20.3,00.0,30.7,23.4,14.9,0000.0,0000.22,0000.99,0000.17
2022-12-25 19:32:00,,0823.7,5.03,0.00,21.7,20.3,00.0,30.7,23.5,14.5,0000.0,0000.22,0000.98,0000.16
2022-12-25 19:33:00,,0823.7,5.02,0.00,21.7,20.3,00.0,30.7,23.5,14.5,0000.0,0000.22,0000.99,0000.16
2022-12-25 19:34:00,,0823.8,4.98,0.00,21.7,20.3,00.0,30.6,23.4,14.7,0000.0,0000.21,0000.75,0000.15
2022-12-25 19:35:00,,0823.7,4.98,0.00,21.7,20.3,00.0,30.6,23.3,14.5,0000.0,0000.20,0000.74,0000.15
2022-12-25 19:36:00,,0823.7,4.98,0.00,21.7,20.3,00.0,30.6,23.4,14.6,0000.0,0000.18,0000.47,0000.15
2022-12-25 19:37:00,,0823.4,4.97,0.00,21.7,20.3,00.0,30.6,23.4,13.9,0000.0,0000.17,0000.34,0000.14
2022-12-25 19:38:00,,0823.5,5.02,0.00,21.7,20.3,00.0,30.6,23.4,14.3,0000.0,0000.16,0000.33,0000.14
2022-12-25 19:39:00,,0823.7,5.02,0.00,21.7,20.2,00.0,30.6,23.4,14.7,0000.0,0000.16,0000.34,0000.14
2022-12-25 19:40:00,,0823.8,5.00,0.00,21.7,20.2,00.0,30.6,23.4,14.3,0000.0,0000.18,0000.38,0000.14
2022-12-25 19:41:00,,0823.7,4.98,0.00,21.7,20.2,00.0,30.6,23.4,14.7,0000.0,0000.19,0000.32,0000.14
2022-12-25 19:42:00,,0823.7,4.98,0.00,21.7,20.2,00.0,30.6,23.3,14.2,0000.0,0000.20,0000.32,0000.13
2022-12-25 19:43:00,,0823.7,5.00,0.00,21.7,20.2,00.0,30.5,23.3,14.6,0000.0,0000.21,0000.35,0000.13
2022-12-25 19:44:00,,0823.7,5.03,0.00,21.6,20.2,00.0,30.5,23.4,14.6,0000.0,0000.22,0000.36,0000.12
2022-12-25 19:45:00,,0823.7,5.01,0.00,21.6,20.2,00.0,30.5,23.4,13.9,0000.0,0000.22,0000.36,0000.12
2022-12-25 19:46:00,,0823.8,4.98,0.00,21.6,20.2,00.0,30.5,23.2,13.3,0000.0,0000.23,0000.38,0000.12
2022-12-25 19:47:00,,0823.7,4.98,0.00,21.6,20.1,00.0,30.5,23.2,13.5,0000.0,0000.23,0000.38,0000.12
2022-12-25 19:48:00,,0823.7,5.01,0.00,21.6,20.2,00.0,30.5,23.3,13.9,0000.0,0000.24,0000.52,0000.12
2022-12-25 19:49:00,,0823.7,4.99,0.00,21.6,20.2,00.0,30.5,23.3,14.1,0000.0,0000.24,0000.87,0000.12
2022-12-25 19:50:00,,0823.8,5.02,0.00,21.6,20.2,00.0,30.5,23.3,14.2,0000.0,0000.24,0001.02,0000.12
2022-12-25 19:51:00,,0823.8,5.00,0.00,21.6,20.2,00.0,30.5,23.3,14.8,0000.0,0000.24,0001.01,0000.12
2022-12-25 19:52:00,,0824.0,4.97,0.00,21.6,20.8,00.0,30.5,23.5,15.2,0000.0,0000.24,0001.02,0000.12
2022-12-25 19:53:00,,0824.0,5.00,0.00,21.8,21.9,00.0,30.5,23.8,15.2,0000.0,0000.24,0000.98,0000.13
2022-12-25 19:54:00,,0824.0,5.03,0.00,21.9,22.1,00.0,30.5,23.9,14.9,0000.0,0000.23,0000.96,0000.15
2022-12-25 19:55:00,,0824.1,4.99,0.00,21.9,21.6,00.0,30.6,23.8,14.6,0000.0,0000.23,0000.96,0000.15
2022-12-25 19:56:00,,0824.1,4.98,0.00,21.9,21.2,00.0,30.6,23.7,14.8,0000.0,0000.24,0000.98,0000.16
2022-12-25 19:57:00,,0824.1,5.03,0.00,21.9,21.0,00.0,30.6,23.7,15.2,0000.0,0000.25,0001.00,0000.18
2022-12-25 19:58:00,,0824.2,5.03,0.00,21.9,20.9,00.0,30.7,23.7,15.6,0000.0,0000.27,0001.03,0000.19
2022-12-25 19:59:00,,0824.2,5.01,0.00,21.9,20.9,00.0,30.7,23.7,15.0,0000.0,0000.28,0000.96,0000.20
